"Sample Date","Sample Time","Sample Value","Units","Flow Rate","Sample Interval","Number Channels","Micron Size 0","Counts/Channel 0","Micron Size 1","Counts/Channel 1","Micron Size 2","Counts/Channel 2","Micron Size 3","Counts/Channel 3","Micron Size 4","Counts/Channel 4","Micron Size 5","Counts/Channel 5","Micron Size 6","Counts/Channel 6","Micron Size 7","Counts/Channel 7","Micron Size 8","Counts/Channel 8","Micron Size 9","Counts/Channel 9","Micron Size 10","Counts/Channel 10","Micron Size 11","Counts/Channel 11","Micron Size 12","Counts/Channel 12","Micron Size 13","Counts/Channel 13","Micron Size 14","Counts/Channel 14","Micron Size 15","Counts/Channel 15","Micron Size 16","Counts/Channel 16","Micron Size 17","Counts/Channel 17","Micron Size 18","Counts/Channel 18","Micron Size 19","Counts/Channel 19","Micron Size 20","Counts/Channel 20","Micron Size 21","Counts/Channel 21","Micron Size 22","Counts/Channel 22","Micron Size 23","Counts/Channel 23","Micron Size 24","Counts/Channel 24","Micron Size 25","Counts/Channel 25","Micron Size 26","Counts/Channel 26","Micron Size 27","Counts/Channel 27","Micron Size 28","Counts/Channel 28","Micron Size 29","Counts/Channel 29","Micron Size 30","Counts/Channel 30","Micron Size 31","Counts/Channel 31"
"03/06/08","15:00:02",39141.000,"cc",28258.932,6.00,6,0.100,35892.000,0.200,2802.000,0.300,373.000,0.500,70.000,1.000,4.000,5.000,0
"03/06/08","15:00:08",38712.000,"cc",28293.740,6.00,6,0.100,35632.000,0.200,2684.000,0.300,327.000,0.500,65.000,1.000,4.000,5.000,0
"03/06/08","15:00:14",38776.000,"cc",28292.662,6.00,6,0.100,35644.000,0.200,2716.000,0.300,348.000,0.500,65.000,1.000,3.000,5.000,0
"03/06/08","15:00:20",38897.000,"cc",28286.033,6.00,6,0.100,35590.000,0.200,2845.000,0.300,360.000,0.500,99.000,1.000,3.000,5.000,0
"03/06/08","15:00:26",39146.000,"cc",28375.711,6.00,6,0.100,35880.000,0.200,2823.000,0.300,347.000,0.500,93.000,1.000,3.000,5.000,0
"03/06/08","15:00:32",39197.000,"cc",28313.393,6.00,6,0.100,35925.000,0.200,2852.000,0.300,332.000,0.500,77.000,1.000,11.000,5.000,0
"03/06/08","15:00:38",39282.000,"cc",28340.309,6.00,6,0.100,35965.000,0.200,2774.000,0.300,433.000,0.500,108.000,1.000,2.000,5.000,0
"03/06/08","15:00:44",38621.000,"cc",28356.031,6.00,6,0.100,35531.000,0.200,2679.000,0.300,344.000,0.500,65.000,1.000,2.000,5.000,0
"03/06/08","15:00:50",39121.000,"cc",28231.377,6.00,6,0.100,35902.000,0.200,2708.000,0.300,400.000,0.500,104.000,1.000,7.000,5.000,0
"03/06/08","15:00:56",39263.000,"cc",28325.359,6.00,6,0.100,36030.000,0.200,2769.000,0.300,364.000,0.500,92.000,1.000,8.000,5.000,0
"03/06/08","15:01:02",38604.000,"cc",28369.272,6.00,6,0.100,35539.000,0.200,2610.000,0.300,367.000,0.500,83.000,1.000,5.000,5.000,0
"03/06/08","15:01:08",38991.000,"cc",28327.162,6.00,6,0.100,35829.000,0.200,2713.000,0.300,339.000,0.500,107.000,1.000,3.000,5.000,0
"03/06/08","15:01:14",38775.000,"cc",28278.168,6.00,6,0.100,35583.000,0.200,2752.000,0.300,364.000,0.500,74.000,1.000,2.000,5.000,0
"03/06/08","15:01:20",38711.000,"cc",28278.926,6.00,6,0.100,35458.000,0.200,2796.000,0.300,361.000,0.500,90.000,1.000,6.000,5.000,0
"03/06/08","15:01:26",38910.000,"cc",28334.383,6.00,6,0.100,35821.000,0.200,2670.000,0.300,342.000,0.500,73.000,1.000,4.000,5.000,0
"03/06/08","15:01:32",38528.000,"cc",28298.299,6.00,6,0.100,35354.000,0.200,2709.000,0.300,364.000,0.500,98.000,1.000,3.000,5.000,0
"03/06/08","15:01:38",38968.000,"cc",28331.598,6.00,6,0.100,35649.000,0.200,2792.000,0.300,414.000,0.500,107.000,1.000,6.000,5.000,0
"03/06/08","15:01:44",38791.000,"cc",28361.787,6.00,6,0.100,35674.000,0.200,2699.000,0.300,333.000,0.500,81.000,1.000,4.000,5.000,0
"03/06/08","15:01:50",38810.000,"cc",28249.947,6.00,6,0.100,35722.000,0.200,2669.000,0.300,351.000,0.500,63.000,1.000,5.000,5.000,0
"03/06/08","15:01:56",38875.000,"cc",28307.871,6.00,6,0.100,35654.000,0.200,2782.000,0.300,358.000,0.500,78.000,1.000,3.000,5.000,0
"03/06/08","15:02:02",38516.000,"cc",28347.273,6.00,6,0.100,35404.000,0.200,2740.000,0.300,292.000,0.500,77.000,1.000,3.000,5.000,0
"03/06/08","15:02:08",38646.000,"cc",28326.033,6.00,6,0.100,35538.000,0.200,2656.000,0.300,356.000,0.500,92.000,1.000,4.000,5.000,0
"03/06/08","15:02:14",38767.000,"cc",28312.662,6.00,6,0.100,35648.000,0.200,2701.000,0.300,340.000,0.500,75.000,1.000,3.000,5.000,0
"03/06/08","15:02:20",38463.000,"cc",28338.647,6.00,6,0.100,35390.000,0.200,2608.000,0.300,366.000,0.500,94.000,1.000,5.000,5.000,0
"03/06/08","15:02:26",38928.000,"cc",28375.859,6.00,6,0.100,35643.000,0.200,2780.000,0.300,410.000,0.500,91.000,1.000,4.000,5.000,0
"03/06/08","15:02:32",38559.000,"cc",28345.170,6.00,6,0.100,35284.000,0.200,2792.000,0.300,388.000,0.500,89.000,1.000,6.000,5.000,0
"03/06/08","15:02:38",38352.000,"cc",28264.199,6.00,6,0.100,35084.000,0.200,2801.000,0.300,384.000,0.500,80.000,1.000,3.000,5.000,0
"03/06/08","15:02:44",38520.000,"cc",28333.240,6.00,6,0.100,35312.000,0.200,2756.000,0.300,356.000,0.500,88.000,1.000,8.000,5.000,0
"03/06/08","15:02:50",38731.000,"cc",28273.457,6.00,6,0.100,35727.000,0.200,2634.000,0.300,300.000,0.500,65.000,1.000,5.000,5.000,0
"03/06/08","15:02:56",38854.000,"cc",28334.361,6.00,6,0.100,35724.000,0.200,2720.000,0.300,345.000,0.500,63.000,1.000,2.000,5.000,0
"03/06/08","15:03:02",39011.000,"cc",28308.248,6.00,6,0.100,35744.000,0.200,2787.000,0.300,381.000,0.500,95.000,1.000,4.000,5.000,0
"03/06/08","15:03:08",38407.000,"cc",28338.600,6.00,6,0.100,35250.000,0.200,2723.000,0.300,355.000,0.500,76.000,1.000,3.000,5.000,0
"03/06/08","15:03:14",39233.000,"cc",28261.971,6.00,6,0.100,35954.000,0.200,2782.000,0.300,409.000,0.500,86.000,1.000,2.000,5.000,0
"03/06/08","15:03:20",38989.000,"cc",28306.805,6.00,6,0.100,35771.000,0.200,2802.000,0.300,336.000,0.500,77.000,1.000,3.000,5.000,0
"03/06/08","15:03:26",38520.000,"cc",28328.145,6.00,6,0.100,35422.000,0.200,2642.000,0.300,364.000,0.500,88.000,1.000,4.000,5.000,0
"03/06/08","15:03:32",39292.000,"cc",28323.877,6.00,6,0.100,36040.000,0.200,2780.000,0.300,365.000,0.500,103.000,1.000,4.000,5.000,0
"03/06/08","15:03:38",38312.000,"cc",28417.777,6.00,6,0.100,35300.000,0.200,2609.000,0.300,351.000,0.500,50.000,1.000,2.000,5.000,0
"03/06/08","15:03:44",38645.000,"cc",28277.148,6.00,6,0.100,35421.000,0.200,2776.000,0.300,383.000,0.500,62.000,1.000,3.000,5.000,0
"03/06/08","15:03:50",38559.000,"cc",28248.275,6.00,6,0.100,35353.000,0.200,2789.000,0.300,336.000,0.500,79.000,1.000,2.000,5.000,0
"03/06/08","15:03:56",38719.000,"cc",28378.643,6.00,6,0.100,35665.000,0.200,2674.000,0.300,324.000,0.500,55.000,1.000,1.000,5.000,0
"03/06/08","15:04:02",38682.000,"cc",28238.299,6.00,6,0.100,35568.000,0.200,2708.000,0.300,353.000,0.500,52.000,1.000,1.000,5.000,0
"03/06/08","15:04:08",38041.000,"cc",28275.313,6.00,6,0.100,35002.000,0.200,2618.000,0.300,356.000,0.500,63.000,1.000,2.000,5.000,0
"03/06/08","15:04:14",38722.000,"cc",28333.553,6.00,6,0.100,35601.000,0.200,2658.000,0.300,389.000,0.500,72.000,1.000,2.000,5.000,0
"03/06/08","15:04:20",38637.000,"cc",28340.121,6.00,6,0.100,35434.000,0.200,2780.000,0.300,338.000,0.500,82.000,1.000,3.000,5.000,0
"03/06/08","15:04:26",37926.000,"cc",28367.908,6.00,6,0.100,34974.000,0.200,2532.000,0.300,334.000,0.500,86.000,1.000,0,5.000,0
"03/06/08","15:04:32",37984.000,"cc",28240.941,6.00,6,0.100,34924.000,0.200,2600.000,0.300,363.000,0.500,93.000,1.000,4.000,5.000,0
"03/06/08","15:04:38",38554.000,"cc",28315.260,6.00,6,0.100,35506.000,0.200,2678.000,0.300,292.000,0.500,73.000,1.000,5.000,5.000,0
"03/06/08","15:04:44",38736.000,"cc",28292.975,6.00,6,0.100,35609.000,0.200,2703.000,0.300,352.000,0.500,68.000,1.000,4.000,5.000,0
"03/06/08","15:04:50",38387.000,"cc",28336.941,6.00,6,0.100,35453.000,0.200,2601.000,0.300,259.000,0.500,66.000,1.000,8.000,5.000,0
"03/06/08","15:04:56",38080.000,"cc",28290.768,6.00,6,0.100,35059.000,0.200,2633.000,0.300,316.000,0.500,71.000,1.000,1.000,5.000,0
"03/06/08","15:05:02",38491.000,"cc",28301.201,6.00,6,0.100,35397.000,0.200,2705.000,0.300,322.000,0.500,59.000,1.000,8.000,5.000,0
"03/06/08","15:05:08",38522.000,"cc",28374.744,6.00,6,0.100,35490.000,0.200,2632.000,0.300,346.000,0.500,51.000,1.000,3.000,5.000,0
"03/06/08","15:05:14",38296.000,"cc",28362.438,6.00,6,0.100,35276.000,0.200,2655.000,0.300,305.000,0.500,58.000,1.000,2.000,5.000,0
"03/06/08","15:05:20",38442.000,"cc",28293.076,6.00,6,0.100,35320.000,0.200,2697.000,0.300,349.000,0.500,74.000,1.000,2.000,5.000,0
"03/06/08","15:05:26",38695.000,"cc",28307.242,6.00,6,0.100,35540.000,0.200,2722.000,0.300,354.000,0.500,73.000,1.000,6.000,5.000,0
"03/06/08","15:05:32",38422.000,"cc",28304.285,6.00,6,0.100,35294.000,0.200,2702.000,0.300,359.000,0.500,62.000,1.000,5.000,5.000,0
"03/06/08","15:05:38",38788.000,"cc",28260.830,6.00,6,0.100,35602.000,0.200,2768.000,0.300,349.000,0.500,66.000,1.000,3.000,5.000,0
"03/06/08","15:05:44",37991.000,"cc",28353.277,6.00,6,0.100,35074.000,0.200,2576.000,0.300,287.000,0.500,51.000,1.000,3.000,5.000,0
"03/06/08","15:05:50",38356.000,"cc",28347.285,6.00,6,0.100,35431.000,0.200,2570.000,0.300,296.000,0.500,57.000,1.000,2.000,5.000,0
"03/06/08","15:05:56",38389.000,"cc",28333.545,6.00,6,0.100,35453.000,0.200,2588.000,0.300,285.000,0.500,59.000,1.000,4.000,5.000,0
"03/06/08","15:06:02",38216.000,"cc",28309.789,6.00,6,0.100,35208.000,0.200,2596.000,0.300,319.000,0.500,91.000,1.000,2.000,5.000,0
"03/06/08","15:06:08",37542.000,"cc",28292.330,6.00,6,0.100,34731.000,0.200,2443.000,0.300,315.000,0.500,51.000,1.000,2.000,5.000,0
"03/06/08","15:06:14",38566.000,"cc",28303.471,6.00,6,0.100,35502.000,0.200,2599.000,0.300,378.000,0.500,84.000,1.000,3.000,5.000,0
"03/06/08","15:06:20",38545.000,"cc",28331.090,6.00,6,0.100,35454.000,0.200,2645.000,0.300,355.000,0.500,89.000,1.000,2.000,5.000,0
"03/06/08","15:06:26",38541.000,"cc",28304.520,6.00,6,0.100,35420.000,0.200,2736.000,0.300,319.000,0.500,63.000,1.000,3.000,5.000,0
"03/06/08","15:06:32",38427.000,"cc",28296.129,6.00,6,0.100,35456.000,0.200,2586.000,0.300,333.000,0.500,51.000,1.000,1.000,5.000,0
"03/06/08","15:06:38",38250.000,"cc",28298.551,6.00,6,0.100,35011.000,0.200,2799.000,0.300,343.000,0.500,93.000,1.000,4.000,5.000,0
"03/06/08","15:06:44",38474.000,"cc",28339.566,6.00,6,0.100,35317.000,0.200,2723.000,0.300,337.000,0.500,86.000,1.000,11.000,5.000,0
"03/06/08","15:06:50",37717.000,"cc",28446.658,6.00,6,0.100,34693.000,0.200,2627.000,0.300,333.000,0.500,62.000,1.000,2.000,5.000,0
"03/06/08","15:06:56",38187.000,"cc",28238.883,6.00,6,0.100,35098.000,0.200,2634.000,0.300,358.000,0.500,93.000,1.000,4.000,5.000,0
"03/06/08","15:07:02",37983.000,"cc",28324.412,6.00,6,0.100,34884.000,0.200,2668.000,0.300,352.000,0.500,73.000,1.000,6.000,5.000,0
"03/06/08","15:07:08",38196.000,"cc",28365.000,6.00,6,0.100,35176.000,0.200,2595.000,0.300,351.000,0.500,70.000,1.000,4.000,5.000,0
"03/06/08","15:07:14",37806.000,"cc",28273.695,6.00,6,0.100,34895.000,0.200,2491.000,0.300,347.000,0.500,70.000,1.000,3.000,5.000,0
"03/06/08","15:07:20",37934.000,"cc",28336.434,6.00,6,0.100,34839.000,0.200,2593.000,0.300,404.000,0.500,97.000,1.000,1.000,5.000,0
"03/06/08","15:07:26",37727.000,"cc",28297.490,6.00,6,0.100,34528.000,0.200,2703.000,0.300,406.000,0.500,86.000,1.000,4.000,5.000,0
"03/06/08","15:07:32",37928.000,"cc",28332.477,6.00,6,0.100,34857.000,0.200,2620.000,0.300,361.000,0.500,88.000,1.000,2.000,5.000,0
"03/06/08","15:07:38",38140.000,"cc",28327.027,6.00,6,0.100,35137.000,0.200,2606.000,0.300,322.000,0.500,74.000,1.000,1.000,5.000,0
"03/06/08","15:07:44",37555.000,"cc",28300.615,6.00,6,0.100,34556.000,0.200,2589.000,0.300,348.000,0.500,61.000,1.000,1.000,5.000,0
"03/06/08","15:07:50",38009.000,"cc",28323.008,6.00,6,0.100,34970.000,0.200,2629.000,0.300,320.000,0.500,87.000,1.000,3.000,5.000,0
"03/06/08","15:07:56",38333.000,"cc",28314.691,6.00,6,0.100,35204.000,0.200,2715.000,0.300,340.000,0.500,70.000,1.000,4.000,5.000,0
"03/06/08","15:08:02",38091.000,"cc",28340.457,6.00,6,0.100,34891.000,0.200,2683.000,0.300,428.000,0.500,84.000,1.000,5.000,5.000,0
"03/06/08","15:08:08",37878.000,"cc",28306.166,6.00,6,0.100,34810.000,0.200,2649.000,0.300,343.000,0.500,76.000,1.000,0,5.000,0
"03/06/08","15:08:14",37240.000,"cc",28403.445,6.00,6,0.100,34326.000,0.200,2491.000,0.300,349.000,0.500,71.000,1.000,3.000,5.000,0
"03/06/08","15:08:20",37889.000,"cc",28229.264,6.00,6,0.100,34838.000,0.200,2635.000,0.300,336.000,0.500,80.000,1.000,0,5.000,0
"03/06/08","15:08:26",37922.000,"cc",28291.127,6.00,6,0.100,34795.000,0.200,2640.000,0.300,398.000,0.500,87.000,1.000,2.000,5.000,0
"03/06/08","15:08:32",37863.000,"cc",28324.193,6.00,6,0.100,34778.000,0.200,2632.000,0.300,381.000,0.500,70.000,1.000,2.000,5.000,0
"03/06/08","15:08:38",37606.000,"cc",28311.180,6.00,6,0.100,34579.000,0.200,2599.000,0.300,346.000,0.500,80.000,1.000,2.000,5.000,0
"03/06/08","15:08:44",38235.000,"cc",28332.205,6.00,6,0.100,35012.000,0.200,2751.000,0.300,370.000,0.500,100.000,1.000,2.000,5.000,0
"03/06/08","15:08:50",38365.000,"cc",28299.713,6.00,6,0.100,35078.000,0.200,2577.000,0.300,426.000,0.500,124.000,1.000,123.000,5.000,37.000
"03/06/08","15:08:56",38475.000,"cc",28315.635,6.00,6,0.100,35168.000,0.200,2791.000,0.300,396.000,0.500,111.000,1.000,9.000,5.000,0
"03/06/08","15:09:02",38021.000,"cc",28299.160,6.00,6,0.100,34769.000,0.200,2686.000,0.300,407.000,0.500,151.000,1.000,8.000,5.000,0
"03/06/08","15:09:08",38300.000,"cc",28349.873,6.00,6,0.100,35038.000,0.200,2736.000,0.300,414.000,0.500,106.000,1.000,6.000,5.000,0
"03/06/08","15:09:14",37405.000,"cc",28311.988,6.00,6,0.100,34357.000,0.200,2621.000,0.300,337.000,0.500,86.000,1.000,4.000,5.000,0
"03/06/08","15:09:20",37633.000,"cc",28336.852,6.00,6,0.100,34490.000,0.200,2620.000,0.300,407.000,0.500,114.000,1.000,2.000,5.000,0
"03/06/08","15:09:26",38166.000,"cc",28272.201,6.00,6,0.100,34802.000,0.200,2761.000,0.300,453.000,0.500,141.000,1.000,9.000,5.000,0
"03/06/08","15:09:32",37962.000,"cc",28311.205,6.00,6,0.100,34631.000,0.200,2748.000,0.300,426.000,0.500,145.000,1.000,12.000,5.000,0
"03/06/08","15:09:38",37328.000,"cc",28306.285,6.00,6,0.100,34162.000,0.200,2620.000,0.300,413.000,0.500,130.000,1.000,3.000,5.000,0
"03/06/08","15:09:44",37669.000,"cc",28317.242,6.00,6,0.100,34515.000,0.200,2594.000,0.300,426.000,0.500,128.000,1.000,6.000,5.000,0
"03/06/08","15:09:50",37466.000,"cc",28355.586,6.00,6,0.100,34305.000,0.200,2658.000,0.300,383.000,0.500,113.000,1.000,7.000,5.000,0
"03/06/08","15:09:56",37599.000,"cc",28226.647,6.00,6,0.100,34594.000,0.200,2550.000,0.300,369.000,0.500,82.000,1.000,4.000,5.000,0
"03/06/08","15:10:02",37242.000,"cc",28301.697,6.00,6,0.100,34074.000,0.200,2608.000,0.300,415.000,0.500,138.000,1.000,7.000,5.000,0
"03/06/08","15:10:08",37511.000,"cc",28421.117,6.00,6,0.100,34362.000,0.200,2625.000,0.300,404.000,0.500,112.000,1.000,8.000,5.000,0
"03/06/08","15:10:14",37124.000,"cc",28307.205,6.00,6,0.100,34011.000,0.200,2551.000,0.300,430.000,0.500,126.000,1.000,6.000,5.000,0
"03/06/08","15:10:20",37453.000,"cc",28344.381,6.00,6,0.100,34374.000,0.200,2540.000,0.300,426.000,0.500,109.000,1.000,4.000,5.000,0
"03/06/08","15:10:26",37497.000,"cc",28323.500,6.00,6,0.100,34238.000,0.200,2668.000,0.300,467.000,0.500,120.000,1.000,4.000,5.000,0
"03/06/08","15:10:32",37565.000,"cc",28322.754,6.00,6,0.100,34404.000,0.200,2643.000,0.300,390.000,0.500,123.000,1.000,5.000,5.000,0
"03/06/08","15:10:38",37722.000,"cc",28266.805,6.00,6,0.100,34534.000,0.200,2642.000,0.300,411.000,0.500,123.000,1.000,12.000,5.000,0
"03/06/08","15:10:44",37895.000,"cc",28376.615,6.00,6,0.100,34642.000,0.200,2716.000,0.300,415.000,0.500,117.000,1.000,5.000,5.000,0
"03/06/08","15:10:50",37882.000,"cc",28233.920,6.00,6,0.100,34706.000,0.200,2662.000,0.300,409.000,0.500,101.000,1.000,4.000,5.000,0
"03/06/08","15:10:56",37550.000,"cc",28308.981,6.00,6,0.100,34421.000,0.200,2633.000,0.300,385.000,0.500,108.000,1.000,3.000,5.000,0
"03/06/08","15:11:02",37673.000,"cc",28366.061,6.00,6,0.100,34554.000,0.200,2678.000,0.300,353.000,0.500,86.000,1.000,2.000,5.000,0
"03/06/08","15:11:08",37863.000,"cc",28347.803,6.00,6,0.100,34660.000,0.200,2699.000,0.300,391.000,0.500,107.000,1.000,6.000,5.000,0
"03/06/08","15:11:14",37930.000,"cc",28287.527,6.00,6,0.100,34819.000,0.200,2645.000,0.300,371.000,0.500,90.000,1.000,5.000,5.000,0
"03/06/08","15:11:20",38245.000,"cc",28318.344,6.00,6,0.100,35122.000,0.200,2683.000,0.300,357.000,0.500,79.000,1.000,4.000,5.000,0
"03/06/08","15:11:26",37655.000,"cc",28356.648,6.00,6,0.100,34584.000,0.200,2649.000,0.300,342.000,0.500,77.000,1.000,3.000,5.000,0
"03/06/08","15:11:32",38032.000,"cc",28325.166,6.00,6,0.100,34915.000,0.200,2738.000,0.300,317.000,0.500,62.000,1.000,0,5.000,0
"03/06/08","15:11:38",38141.000,"cc",28266.678,6.00,6,0.100,35094.000,0.200,2618.000,0.300,343.000,0.500,84.000,1.000,2.000,5.000,0
"03/06/08","15:11:44",38017.000,"cc",28319.516,6.00,6,0.100,34876.000,0.200,2674.000,0.300,376.000,0.500,87.000,1.000,4.000,5.000,0
"03/06/08","15:11:50",38081.000,"cc",28282.232,6.00,6,0.100,34953.000,0.200,2697.000,0.300,348.000,0.500,79.000,1.000,4.000,5.000,0
"03/06/08","15:11:56",37448.000,"cc",28289.418,6.00,6,0.100,34287.000,0.200,2676.000,0.300,397.000,0.500,85.000,1.000,3.000,5.000,0
"03/06/08","15:12:02",38229.000,"cc",28287.211,6.00,6,0.100,35155.000,0.200,2650.000,0.300,333.000,0.500,91.000,1.000,0,5.000,0
"03/06/08","15:12:08",38290.000,"cc",28347.959,6.00,6,0.100,35323.000,0.200,2533.000,0.300,351.000,0.500,77.000,1.000,6.000,5.000,0
"03/06/08","15:12:14",38078.000,"cc",28368.072,6.00,6,0.100,35016.000,0.200,2650.000,0.300,333.000,0.500,77.000,1.000,2.000,5.000,0
"03/06/08","15:12:20",37958.000,"cc",28360.279,6.00,6,0.100,35026.000,0.200,2575.000,0.300,286.000,0.500,69.000,1.000,2.000,5.000,0
"03/06/08","15:12:26",37656.000,"cc",28308.162,6.00,6,0.100,34674.000,0.200,2591.000,0.300,343.000,0.500,47.000,1.000,1.000,5.000,0
"03/06/08","15:12:32",38264.000,"cc",28261.979,6.00,6,0.100,35107.000,0.200,2751.000,0.300,344.000,0.500,61.000,1.000,1.000,5.000,0
"03/06/08","15:12:38",37755.000,"cc",28315.719,6.00,6,0.100,34746.000,0.200,2615.000,0.300,327.000,0.500,66.000,1.000,1.000,5.000,0
"03/06/08","15:12:44",37988.000,"cc",28352.592,6.00,6,0.100,34877.000,0.200,2701.000,0.300,342.000,0.500,66.000,1.000,2.000,5.000,0
"03/06/08","15:12:50",37481.000,"cc",28347.793,6.00,6,0.100,34453.000,0.200,2595.000,0.300,349.000,0.500,82.000,1.000,2.000,5.000,0
"03/06/08","15:12:56",38210.000,"cc",28327.256,6.00,6,0.100,35115.000,0.200,2634.000,0.300,382.000,0.500,75.000,1.000,4.000,5.000,0
"03/06/08","15:13:02",38051.000,"cc",28287.643,6.00,6,0.100,35119.000,0.200,2538.000,0.300,322.000,0.500,70.000,1.000,2.000,5.000,0
"03/06/08","15:13:08",37212.000,"cc",28370.508,6.00,6,0.100,34346.000,0.200,2509.000,0.300,314.000,0.500,43.000,1.000,0,5.000,0
"03/06/08","15:13:14",38349.000,"cc",28276.137,6.00,6,0.100,35176.000,0.200,2712.000,0.300,377.000,0.500,80.000,1.000,4.000,5.000,0
"03/06/08","15:13:20",37786.000,"cc",28212.996,6.00,6,0.100,34870.000,0.200,2518.000,0.300,337.000,0.500,58.000,1.000,3.000,5.000,0
"03/06/08","15:13:26",37887.000,"cc",28278.826,6.00,6,0.100,34752.000,0.200,2692.000,0.300,360.000,0.500,78.000,1.000,5.000,5.000,0
"03/06/08","15:13:32",37830.000,"cc",28386.699,6.00,6,0.100,34811.000,0.200,2653.000,0.300,313.000,0.500,51.000,1.000,2.000,5.000,0
"03/06/08","15:13:38",37923.000,"cc",28343.152,6.00,6,0.100,34809.000,0.200,2692.000,0.300,349.000,0.500,71.000,1.000,2.000,5.000,0
"03/06/08","15:13:44",37917.000,"cc",28310.785,6.00,6,0.100,34732.000,0.200,2725.000,0.300,372.000,0.500,86.000,1.000,2.000,5.000,0
"03/06/08","15:13:50",38270.000,"cc",28289.219,6.00,6,0.100,35118.000,0.200,2673.000,0.300,405.000,0.500,67.000,1.000,7.000,5.000,0
"03/06/08","15:13:56",38226.000,"cc",28358.006,6.00,6,0.100,35075.000,0.200,2691.000,0.300,379.000,0.500,78.000,1.000,3.000,5.000,0
"03/06/08","15:14:02",37764.000,"cc",28263.535,6.00,6,0.100,34803.000,0.200,2514.000,0.300,355.000,0.500,87.000,1.000,5.000,5.000,0
"03/06/08","15:14:08",37633.000,"cc",28303.555,6.00,6,0.100,34640.000,0.200,2593.000,0.300,335.000,0.500,60.000,1.000,5.000,5.000,0
"03/06/08","15:14:14",37923.000,"cc",28412.113,6.00,6,0.100,34986.000,0.200,2580.000,0.300,291.000,0.500,64.000,1.000,2.000,5.000,0
"03/06/08","15:14:20",37900.000,"cc",28301.543,6.00,6,0.100,34745.000,0.200,2672.000,0.300,388.000,0.500,92.000,1.000,3.000,5.000,0
"03/06/08","15:14:26",37779.000,"cc",28264.555,6.00,6,0.100,34923.000,0.200,2486.000,0.300,314.000,0.500,55.000,1.000,1.000,5.000,0
"03/06/08","15:14:32",37898.000,"cc",28368.953,6.00,6,0.100,34839.000,0.200,2632.000,0.300,367.000,0.500,58.000,1.000,2.000,5.000,0
"03/06/08","15:14:38",37884.000,"cc",28351.813,6.00,6,0.100,34858.000,0.200,2615.000,0.300,342.000,0.500,66.000,1.000,3.000,5.000,0
"03/06/08","15:14:44",37875.000,"cc",28263.164,6.00,6,0.100,34796.000,0.200,2677.000,0.300,322.000,0.500,78.000,1.000,2.000,5.000,0
"03/06/08","15:14:50",38283.000,"cc",28307.022,6.00,6,0.100,35169.000,0.200,2682.000,0.300,350.000,0.500,80.000,1.000,2.000,5.000,0
"03/06/08","15:14:56",38348.000,"cc",28262.705,6.00,6,0.100,35139.000,0.200,2737.000,0.300,367.000,0.500,103.000,1.000,2.000,5.000,0
"03/06/08","15:15:02",38546.000,"cc",28337.623,6.00,6,0.100,35377.000,0.200,2725.000,0.300,376.000,0.500,63.000,1.000,5.000,5.000,0
"03/06/08","15:15:08",38070.000,"cc",28391.783,6.00,6,0.100,35159.000,0.200,2598.000,0.300,265.000,0.500,45.000,1.000,3.000,5.000,0
"03/06/08","15:15:14",38079.000,"cc",28265.756,6.00,6,0.100,35102.000,0.200,2631.000,0.300,301.000,0.500,44.000,1.000,1.000,5.000,0
"03/06/08","15:15:20",38434.000,"cc",28322.816,6.00,6,0.100,35435.000,0.200,2619.000,0.300,332.000,0.500,44.000,1.000,4.000,5.000,0
"03/06/08","15:15:26",38701.000,"cc",28370.094,6.00,6,0.100,35578.000,0.200,2700.000,0.300,342.000,0.500,76.000,1.000,5.000,5.000,0
"03/06/08","15:15:32",38332.000,"cc",28338.190,6.00,6,0.100,35255.000,0.200,2695.000,0.300,334.000,0.500,46.000,1.000,2.000,5.000,0
"03/06/08","15:15:38",38449.000,"cc",28255.147,6.00,6,0.100,35380.000,0.200,2662.000,0.300,325.000,0.500,79.000,1.000,3.000,5.000,0
"03/06/08","15:15:44",38179.000,"cc",28355.711,6.00,6,0.100,35306.000,0.200,2494.000,0.300,314.000,0.500,61.000,1.000,4.000,5.000,0
"03/06/08","15:15:50",38432.000,"cc",28273.482,6.00,6,0.100,35374.000,0.200,2695.000,0.300,308.000,0.500,49.000,1.000,6.000,5.000,0
"03/06/08","15:15:56",37590.000,"cc",28317.975,6.00,6,0.100,34813.000,0.200,2443.000,0.300,285.000,0.500,47.000,1.000,2.000,5.000,0
"03/06/08","15:16:02",38053.000,"cc",28239.756,6.00,6,0.100,35066.000,0.200,2592.000,0.300,321.000,0.500,74.000,1.000,0,5.000,0
"03/06/08","15:16:08",38283.000,"cc",28314.703,6.00,6,0.100,35282.000,0.200,2599.000,0.300,319.000,0.500,74.000,1.000,9.000,5.000,0
"03/06/08","15:16:14",38580.000,"cc",28360.609,6.00,6,0.100,35339.000,0.200,2752.000,0.300,398.000,0.500,81.000,1.000,10.000,5.000,0
"03/06/08","15:16:20",38468.000,"cc",28327.074,6.00,6,0.100,35538.000,0.200,2579.000,0.300,298.000,0.500,52.000,1.000,1.000,5.000,0
"03/06/08","15:16:26",38512.000,"cc",28330.346,6.00,6,0.100,35342.000,0.200,2760.000,0.300,342.000,0.500,67.000,1.000,1.000,5.000,0
"03/06/08","15:16:32",38671.000,"cc",28355.711,6.00,6,0.100,35612.000,0.200,2668.000,0.300,329.000,0.500,61.000,1.000,1.000,5.000,0
"03/06/08","15:16:38",38891.000,"cc",28263.510,6.00,6,0.100,35822.000,0.200,2696.000,0.300,318.000,0.500,53.000,1.000,2.000,5.000,0
"03/06/08","15:16:44",38821.000,"cc",28212.856,6.00,6,0.100,35756.000,0.200,2665.000,0.300,332.000,0.500,64.000,1.000,4.000,5.000,0
"03/06/08","15:16:50",38680.000,"cc",28259.232,6.00,6,0.100,35590.000,0.200,2775.000,0.300,282.000,0.500,29.000,1.000,4.000,5.000,0
"03/06/08","15:16:56",39122.000,"cc",28312.768,6.00,6,0.100,35942.000,0.200,2734.000,0.300,357.000,0.500,87.000,1.000,2.000,5.000,0